| time (UTC) | temp C | wind direction | speed KPH | gust KPH | rain 1hr cm | rain 24hr cm | rain mn cm | humidity % | barometer mb |
| 20260505041737 | 11 | 328 | 4.8 | 11.3 | 0.00 | 0.00 | 0.00 | 67 | 1011.0 |
| 20260505041237 | 10 | 326 | 3.2 | 8.0 | 0.00 | 0.00 | 0.00 | 65 | 1010.8 |
| 20260505040737 | 10 | 325 | 3.2 | 8.0 | 0.00 | 0.00 | 0.00 | 65 | 1010.7 |
| 20260505040237 | 10 | 340 | 3.2 | 8.0 | 0.00 | 0.00 | 0.00 | 66 | 1010.7 |
| 20260505035737 | 10 | 359 | 3.2 | 8.0 | 0.00 | 0.00 | 0.00 | 65 | 1010.7 |
| 20260505035237 | 10 | 16 | 3.2 | 6.4 | 0.00 | 0.00 | 0.00 | 65 | 1010.5 |
| 20260505034737 | 10 | 355 | 0.0 | 3.2 | 0.00 | 0.00 | 0.00 | 66 | 1010.5 |
| 20260505034237 | 10 | 1 | 1.6 | 4.8 | 0.00 | 0.00 | 0.00 | 66 | 1010.5 |
| 20260505033758 | 10 | -1 | 1.6 | 4.8 | 0.00 | 0.00 | 0.00 | 65 | 1010.4 |
| 20260505033258 | 11 | 5 | 1.6 | 3.2 | 0.00 | 0.00 | 0.00 | 65 | 1010.3 |
| 20260505032737 | 11 | 28 | 1.6 | 8.0 | 0.00 | 0.00 | 0.00 | 64 | 1010.3 |
| 20260505032237 | 11 | 39 | 3.2 | 8.0 | 0.00 | 0.00 | 0.00 | 62 | 1010.3 |
| 20260505031737 | 11 | 64 | 3.2 | 6.4 | 0.00 | 0.00 | 0.00 | 63 | 1010.3 |
| 20260505031258 | 11 | 76 | 3.2 | 9.7 | 0.00 | 0.00 | 0.00 | 62 | 1010.2 |
| 20260505030737 | 11 | 67 | 4.8 | 12.9 | 0.00 | 0.00 | 0.00 | 62 | 1009.9 |
| 20260505030237 | 11 | 61 | 8.0 | 11.3 | 0.00 | 0.00 | 0.00 | 62 | 1009.9 |
| 20260505025737 | 11 | 60 | 6.4 | 12.9 | 0.00 | 0.00 | 0.00 | 61 | 1009.9 |
| 20260505025237 | 12 | 49 | 4.8 | 12.9 | 0.00 | 0.00 | 0.00 | 59 | 1009.8 |
| 20260505024737 | 12 | 60 | 8.0 | 12.9 | 0.00 | 0.00 | 0.00 | 57 | 1009.9 |
| 20260505024237 | 12 | 35 | 6.4 | 12.9 | 0.00 | 0.00 | 0.00 | 57 | 1009.9 |
| 20260505023737 | 12 | 52 | 6.4 | 14.5 | 0.00 | 0.00 | 0.00 | 61 | 1009.8 |
| 20260505023237 | 12 | 54 | 3.2 | 8.0 | 0.00 | 0.00 | 0.00 | 59 | 1009.7 |
| 20260505022758 | 12 | 60 | 3.2 | 9.7 | 0.00 | 0.00 | 0.00 | 58 | 1009.6 |
| 20260505022237 | 12 | 18 | 4.8 | 9.7 | 0.00 | 0.00 | 0.00 | 57 | 1009.5 |
| 20260505021758 | 12 | 51 | 1.6 | 8.0 | 0.00 | 0.00 | 0.00 | 55 | 1009.6 |
| 20260505021237 | 12 | 78 | 1.6 | 8.0 | 0.00 | 0.00 | 0.00 | 56 | 1009.8 |
| 20260505020737 | 13 | 325 | 3.2 | 8.0 | 0.00 | 0.00 | 0.00 | 55 | 1009.8 |
| 20260505020237 | 13 | 333 | 3.2 | 9.7 | 0.00 | 0.00 | 0.00 | 55 | 1009.9 |
| 20260505015737 | 13 | 318 | 4.8 | 9.7 | 0.00 | 0.00 | 0.00 | 54 | 1009.7 |
| 20260505015237 | 13 | 330 | 1.6 | 4.8 | 0.00 | 0.00 | 0.00 | 54 | 1009.5 |
| 20260505014737 | 13 | 33 | 0.0 | 1.6 | 0.00 | 0.00 | 0.00 | 54 | 1009.3 |
| 20260505014237 | 13 | 33 | 0.0 | 3.2 | 0.00 | 0.00 | 0.00 | 54 | 1009.3 |
| 20260505013737 | 13 | 33 | 0.0 | 6.4 | 0.00 | 0.00 | 0.00 | 53 | 1009.3 |
| 20260505013237 | 13 | 5 | 0.0 | 8.0 | 0.00 | 0.00 | 0.00 | 51 | 1009.3 |
| 20260505012737 | 14 | 342 | 3.2 | 11.3 | 0.00 | 0.00 | 0.00 | 50 | 1009.3 |
| 20260505012237 | 14 | 334 | 6.4 | 11.3 | 0.00 | 0.00 | 0.00 | 47 | 1009.1 |
| 20260505011737 | 14 | 346 | 3.2 | 9.7 | 0.00 | 0.00 | 0.00 | 45 | 1009.0 |
| 20260505011237 | 14 | 325 | 4.8 | 9.7 | 0.00 | 0.00 | 0.00 | 44 | 1008.9 |
| 20260505010737 | 14 | 2 | 4.8 | 9.7 | 0.00 | 0.00 | 0.00 | 45 | 1008.9 |
| 20260505010237 | 14 | -1 | 4.8 | 14.5 | 0.00 | 0.00 | 0.00 | 45 | 1008.7 |
| 20260505005737 | 14 | -1 | 6.4 | 14.5 | 0.00 | 0.00 | 0.00 | 46 | 1008.7 |
| 20260505005237 | 14 | -1 | 6.4 | 20.9 | 0.00 | 0.00 | 0.00 | 46 | 1008.6 |
| 20260505004737 | 14 | 40 | 8.0 | 20.9 | 0.00 | 0.00 | 0.00 | 46 | 1008.4 |
| 20260505004237 | 14 | 4 | 8.0 | 22.5 | 0.00 | 0.00 | 0.00 | 47 | 1008.6 |
| 20260505003737 | 14 | 22 | 9.7 | 19.3 | 0.00 | 0.00 | 0.00 | 48 | 1008.6 |
| 20260505003237 | 14 | 356 | 9.7 | 30.6 | 0.00 | 0.00 | 0.00 | 47 | 1008.7 |
| 20260505002737 | 14 | 29 | 14.5 | 30.6 | 0.00 | 0.00 | 0.00 | 47 | 1008.7 |
| 20260505002237 | 14 | 57 | 17.7 | 27.4 | 0.00 | 0.00 | 0.00 | 45 | 1008.7 |
| 20260505001737 | 15 | 36 | 14.5 | 25.7 | 0.00 | 0.00 | 0.00 | 44 | 1008.6 |
| 20260505001237 | 15 | 45 | 12.9 | 25.7 | 0.00 | 0.00 | 0.00 | 43 | 1008.6 |
| 20260505000737 | 15 | 56 | 17.7 | 25.7 | 0.00 | 0.00 | 0.00 | 41 | 1008.5 |
| 20260505000237 | 16 | 57 | 11.3 | 25.7 | 0.00 | 0.00 | 0.00 | 38 | 1008.4 |
| 20260504235737 | 17 | 347 | 9.7 | 20.9 | 0.00 | 0.00 | 0.00 | 32 | 1008.1 |
| 20260504235237 | 17 | 328 | 9.7 | 20.9 | 0.00 | 0.00 | 0.00 | 32 | 1008.0 |
| 20260504234737 | 17 | 354 | 9.7 | 19.3 | 0.00 | 0.00 | 0.00 | 31 | 1008.0 |
| 20260504234237 | 17 | 332 | 11.3 | 19.3 | 0.00 | 0.00 | 0.00 | 31 | 1008.0 |
| 20260504233737 | 17 | 354 | 8.0 | 19.3 | 0.00 | 0.00 | 0.00 | 31 | 1008.0 |
| 20260504233237 | 17 | 353 | 9.7 | 20.9 | 0.00 | 0.00 | 0.00 | 31 | 1007.9 |
| 20260504232737 | 17 | 341 | 9.7 | 17.7 | 0.00 | 0.00 | 0.00 | 30 | 1007.9 |
| 20260504232237 | 17 | 337 | 8.0 | 19.3 | 0.00 | 0.00 | 0.00 | 31 | 1007.9 |
| 20260504231737 | 17 | 334 | 9.7 | 20.9 | 0.00 | 0.00 | 0.00 | 31 | 1007.8 |
| 20260504231237 | 17 | 344 | 11.3 | 24.1 | 0.00 | 0.00 | 0.00 | 31 | 1007.6 |
| 20260504230737 | 17 | 4 | 9.7 | 24.1 | 0.00 | 0.00 | 0.00 | 30 | 1007.6 |
| 20260504230237 | 18 | 7 | 9.7 | 24.1 | 0.00 | 0.00 | 0.00 | 30 | 1007.4 |
| 20260504225737 | 18 | 19 | 12.9 | 24.1 | 0.00 | 0.00 | 0.00 | 29 | 1007.3 |
| 20260504225258 | 18 | 335 | 11.3 | 25.7 | 0.00 | 0.00 | 0.00 | 29 | 1007.4 |
| 20260504224737 | 18 | 342 | 14.5 | 25.7 | 0.00 | 0.00 | 0.00 | 29 | 1007.2 |
| 20260504224237 | 18 | 328 | 14.5 | 29.0 | 0.00 | 0.00 | 0.00 | 28 | 1007.0 |
| 20260504223737 | 19 | 346 | 14.5 | 30.6 | 0.00 | 0.00 | 0.00 | 27 | 1007.0 |
| 20260504223258 | 19 | 357 | 12.9 | 30.6 | 0.00 | 0.00 | 0.00 | 27 | 1007.0 |
| 20260504222737 | 20 | 353 | 11.3 | 22.5 | 0.00 | 0.00 | 0.00 | 26 | 1006.9 |
| 20260504222258 | 20 | 7 | 9.7 | 29.0 | 0.00 | 0.00 | 0.00 | 26 | 1007.0 |
| 20260504221737 | 20 | 326 | 12.9 | 30.6 | 0.00 | 0.00 | 0.00 | 25 | 1007.0 |
| 20260504221237 | 21 | 17 | 19.3 | 30.6 | 0.00 | 0.00 | 0.00 | 24 | 1006.7 |
| 20260504220758 | 21 | 311 | 11.3 | 27.4 | 0.00 | 0.00 | 0.00 | 24 | 1006.7 |
| 20260504220237 | 21 | 353 | 12.9 | 25.7 | 0.00 | 0.00 | 0.00 | 24 | 1006.8 |
| 20260504215737 | 20 | 13 | 12.9 | 25.7 | 0.00 | 0.00 | 0.00 | 25 | 1006.9 |
| 20260504215237 | 20 | 5 | 11.3 | 25.7 | 0.00 | 0.00 | 0.00 | 24 | 1007.0 |
| 20260504214737 | 20 | 357 | 9.7 | 27.4 | 0.00 | 0.00 | 0.00 | 24 | 1007.1 |
| 20260504214258 | 20 | 340 | 12.9 | 27.4 | 0.00 | 0.00 | 0.00 | 24 | 1007.0 |
| 20260504213737 | 20 | 343 | 9.7 | 24.1 | 0.00 | 0.00 | 0.00 | 23 | 1006.9 |
| 20260504213237 | 20 | 1 | 12.9 | 22.5 | 0.00 | 0.00 | 0.00 | 22 | 1006.9 |
| 20260504212737 | 20 | 334 | 9.7 | 24.1 | 0.00 | 0.00 | 0.00 | 21 | 1006.9 |
| 20260504212237 | 20 | 355 | 11.3 | 24.1 | 0.00 | 0.00 | 0.00 | 21 | 1006.9 |
| 20260504211737 | 21 | 42 | 11.3 | 19.3 | 0.00 | 0.00 | 0.00 | 21 | 1006.9 |
| 20260504211237 | 21 | 319 | 8.0 | 17.7 | 0.00 | 0.00 | 0.00 | 19 | 1007.0 |
| 20260504210737 | 21 | 22 | 9.7 | 29.0 | 0.00 | 0.00 | 0.00 | 19 | 1007.0 |
| 20260504210237 | 21 | 43 | 16.1 | 29.0 | 0.00 | 0.00 | 0.00 | 20 | 1006.8 |
| 20260504205737 | 21 | 341 | 4.8 | 11.3 | 0.00 | 0.00 | 0.00 | 19 | 1006.9 |
| 20260504205237 | 21 | 339 | 4.8 | 12.9 | 0.00 | 0.00 | 0.00 | 18 | 1006.9 |
| 20260504204758 | 21 | 224 | 3.2 | 25.7 | 0.00 | 0.00 | 0.00 | 18 | 1007.0 |
| 20260504204237 | 21 | 311 | 9.7 | 20.9 | 0.00 | 0.00 | 0.00 | 18 | 1007.1 |
| 20260504203737 | 21 | 305 | 8.0 | 16.1 | 0.00 | 0.00 | 0.00 | 18 | 1007.0 |
| 20260504203258 | 21 | 221 | 4.8 | 19.3 | 0.00 | 0.00 | 0.00 | 17 | 1007.0 |
| 20260504202737 | 21 | 235 | 8.0 | 22.5 | 0.00 | 0.00 | 0.00 | 17 | 1007.2 |
| 20260504202237 | 21 | 284 | 4.8 | 22.5 | 0.00 | 0.00 | 0.00 | 17 | 1007.0 |
| 20260504201737 | 21 | 268 | 6.4 | 14.5 | 0.00 | 0.00 | 0.00 | 17 | 1006.9 |
| 20260504201237 | 21 | 308 | 4.8 | 16.1 | 0.00 | 0.00 | 0.00 | 17 | 1006.8 |
| 20260504200737 | 21 | 329 | 8.0 | 16.1 | 0.00 | 0.00 | 0.00 | 16 | 1006.9 |
| 20260504200237 | 22 | 319 | 4.8 | 12.9 | 0.00 | 0.00 | 0.00 | 16 | 1006.9 |
| 20260504195737 | 22 | 272 | 4.8 | 8.0 | 0.00 | 0.00 | 0.00 | 16 | 1006.9 |
| 20260504195237 | 22 | 315 | 1.6 | 12.9 | 0.00 | 0.00 | 0.00 | 16 | 1006.8 |
| 20260504194737 | 22 | 338 | 4.8 | 17.7 | 0.00 | 0.00 | 0.00 | 16 | 1006.8 |
| 20260504194258 | 22 | 353 | 11.3 | 17.7 | 0.00 | 0.00 | 0.00 | 16 | 1006.8 |
| 20260504193737 | 22 | 259 | 3.2 | 9.7 | 0.00 | 0.00 | 0.00 | 17 | 1006.8 |
| 20260504193237 | 22 | 320 | 4.8 | 9.7 | 0.00 | 0.00 | 0.00 | 16 | 1006.8 |
| 20260504192737 | 22 | 313 | 3.2 | 11.3 | 0.00 | 0.00 | 0.00 | 16 | 1006.9 |
| 20260504192237 | 23 | 249 | 3.2 | 12.9 | 0.00 | 0.00 | 0.00 | 16 | 1006.8 |
| 20260504191737 | 23 | 299 | 6.4 | 12.9 | 0.00 | 0.00 | 0.00 | 16 | 1006.8 |
| 20260504191237 | 23 | 290 | 8.0 | 14.5 | 0.00 | 0.00 | 0.00 | 16 | 1006.8 |
| 20260504190737 | 23 | 269 | 3.2 | 12.9 | 0.00 | 0.00 | 0.00 | 15 | 1006.9 |
| 20260504190237 | 23 | 329 | 6.4 | 14.5 | 0.00 | 0.00 | 0.00 | 15 | 1006.9 |
| 20260504185737 | 24 | 326 | 6.4 | 12.9 | 0.00 | 0.00 | 0.00 | 15 | 1006.9 |
| 20260504185237 | 24 | 309 | 6.4 | 12.9 | 0.00 | 0.00 | 0.00 | 15 | 1007.0 |
| 20260504184737 | 24 | 302 | 4.8 | 19.3 | 0.00 | 0.00 | 0.00 | 14 | 1007.0 |
| 20260504184237 | 23 | 309 | 11.3 | 19.3 | 0.00 | 0.00 | 0.00 | 16 | 1007.0 |
| 20260504183737 | 23 | 336 | 8.0 | 19.3 | 0.00 | 0.00 | 0.00 | 15 | 1007.1 |
| 20260504183237 | 23 | 332 | 6.4 | 19.3 | 0.00 | 0.00 | 0.00 | 16 | 1007.2 |
| 20260504182737 | 24 | 353 | 9.7 | 19.3 | 0.00 | 0.00 | 0.00 | 16 | 1007.1 |
| 20260504182258 | 23 | 343 | 8.0 | 16.1 | 0.00 | 0.00 | 0.00 | 17 | 1007.2 |
| 20260504181737 | 23 | 313 | 8.0 | 16.1 | 0.00 | 0.00 | 0.00 | 17 | 1007.3 |
| 20260504181237 | 23 | 307 | 8.0 | 17.7 | 0.00 | 0.00 | 0.00 | 18 | 1007.4 |
| 20260504180737 | 23 | 323 | 9.7 | 22.5 | 0.00 | 0.00 | 0.00 | 17 | 1007.4 |
| 20260504180237 | 23 | 275 | 4.8 | 22.5 | 0.00 | 0.00 | 0.00 | 17 | 1007.5 |
| 20260504175737 | 22 | 321 | 4.8 | 16.1 | 0.00 | 0.00 | 0.00 | 17 | 1007.6 |
| 20260504175237 | 22 | 297 | 4.8 | 19.3 | 0.00 | 0.00 | 0.00 | 17 | 1007.7 |
| 20260504174758 | 23 | 287 | 6.4 | 19.3 | 0.00 | 0.00 | 0.00 | 17 | 1007.9 |
| 20260504174237 | 23 | 300 | 8.0 | 19.3 | 0.00 | 0.00 | 0.00 | 17 | 1007.9 |
| 20260504173737 | 23 | 293 | 6.4 | 16.1 | 0.00 | 0.00 | 0.00 | 18 | 1007.9 |
| 20260504173237 | 23 | 314 | 6.4 | 16.1 | 0.00 | 0.00 | 0.00 | 18 | 1007.9 |
| 20260504172758 | 22 | 272 | 6.4 | 17.7 | 0.00 | 0.00 | 0.00 | 18 | 1008.0 |
| 20260504172237 | 22 | 301 | 8.0 | 19.3 | 0.00 | 0.00 | 0.00 | 18 | 1008.0 |
| 20260504171758 | 22 | 302 | 8.0 | 19.3 | 0.00 | 0.00 | 0.00 | 17 | 1008.0 |
| 20260504171237 | 22 | 283 | 8.0 | 22.5 | 0.00 | 0.00 | 0.00 | 19 | 1008.1 |
| 20260504170737 | 22 | 319 | 9.7 | 19.3 | 0.00 | 0.00 | 0.00 | 19 | 1008.1 |
| 20260504170237 | 22 | 305 | 6.4 | 19.3 | 0.00 | 0.00 | 0.00 | 20 | 1008.1 |
| 20260504160237 | 21 | 273 | 9.7 | 22.5 | 0.00 | 0.00 | 0.00 | 20 | 1008.3 |
| 20260504150737 | 18 | 274 | 6.4 | 20.9 | 0.00 | 0.00 | 0.00 | 23 | 1008.6 |
| 20260504150237 | 18 | 273 | 6.4 | 14.5 | 0.00 | 0.00 | 0.00 | 24 | 1008.6 |
| 20260504141237 | 16 | 251 | 3.2 | 17.7 | 0.00 | 0.00 | 0.00 | 29 | 1008.7 |
| 20260504140737 | 16 | 248 | 6.4 | 17.7 | 0.00 | 0.00 | 0.00 | 30 | 1008.6 |
| 20260504140237 | 15 | 229 | 6.4 | 14.5 | 0.00 | 0.00 | 0.00 | 32 | 1008.7 |
| 20260504130737 | 8 | 254 | 0.0 | 3.2 | 0.00 | 0.00 | 0.00 | 49 | 1008.7 |
| 20260504130258 | 8 | 254 | 0.0 | 3.2 | 0.00 | 0.00 | 0.00 | 49 | 1008.7 |
| 20260504120237 | 8 | 230 | 1.6 | 6.4 | 0.00 | 0.00 | 0.00 | 48 | 1008.5 |
| 20260504110258 | 7 | 247 | 1.6 | 8.0 | 0.00 | 0.00 | 0.00 | 52 | 1008.9 |
| 20260504100423 | 7 | 248 | 1.6 | 8.0 | 0.00 | 0.00 | 0.00 | 51 | 1009.1 |
| 20260504081737 | 10 | 260 | 3.2 | 9.7 | 0.00 | 0.00 | 0.00 | 41 | 1009.6 |
| 20260504081237 | 10 | 264 | 3.2 | 9.7 | 0.00 | 0.00 | 0.00 | 41 | 1009.7 |
| 20260504080737 | 10 | 268 | 3.2 | 11.3 | 0.00 | 0.00 | 0.00 | 41 | 1009.8 |
| 20260504080237 | 10 | 287 | 4.8 | 11.3 | 0.00 | 0.00 | 0.00 | 41 | 1009.9 |
| 20260504070237 | 12 | 187 | 0.0 | 6.4 | 0.00 | 0.00 | 0.00 | 37 | 1010.0 |
| 20260504060237 | 14 | 343 | 3.2 | 11.3 | 0.00 | 0.00 | 0.00 | 30 | 1010.3 |
| 20260504050237 | 14 | 247 | 0.0 | 4.8 | 0.00 | 0.00 | 0.00 | 29 | 1010.1 |
| 20260504045737 | 15 | 242 | 0.0 | 4.8 | 0.00 | 0.00 | 0.00 | 28 | 1010.1 |
| 20260504045237 | 15 | 245 | 1.6 | 4.8 | 0.00 | 0.00 | 0.00 | 28 | 1010.2 |
| 20260504044758 | 15 | 243 | 0.0 | 3.2 | 0.00 | 0.00 | 0.00 | 28 | 1010.2 |
| 20260504044237 | 15 | 243 | 0.0 | 3.2 | 0.00 | 0.00 | 0.00 | 28 | 1010.3 |
| 20260504043737 | 15 | 243 | 0.0 | 3.2 | 0.00 | 0.00 | 0.00 | 27 | 1010.3 |
| 20260504043258 | 15 | 243 | 0.0 | 3.2 | 0.00 | 0.00 | 0.00 | 27 | 1010.4 |
| 20260504042737 | 15 | 243 | 0.0 | 3.2 | 0.00 | 0.00 | 0.00 | 26 | 1010.4 |